• en France
  • Liste des pays
  • À 7 jours
  • Température de l'eau
  • Carte satellitaire
  • Carte météo
  • Widgets météo
  • user-avatar
    Se connecter

    Météo par heure à Ordino

    Ce jour, 21 Juin, Jeudi

    Heure Température Précipitation Vent Pression Humidité
    00:00 +14°C° 0 mm 1 m/s 637 mmHg 79%
    01:00 +13°C° 0 mm 1 m/s 637 mmHg 80%
    02:00 +13°C° 0 mm 1 m/s 637 mmHg 81%
    03:00 +13°C° 0 mm 1 m/s 637 mmHg 82%
    04:00 +14°C° 0 mm 1 m/s 637 mmHg 81%
    05:00 +15°C° 0 mm 1 m/s 638 mmHg 79%
    06:00 +16°C° 0 mm 1 m/s 638 mmHg 78%
    07:00 +19°C° 0 mm 1 m/s 639 mmHg 69%
    08:00 +21°C° 0 mm 1 m/s 639 mmHg 60%
    09:00 +23°C° 0 mm 1 m/s 640 mmHg 50%
    10:00 +23°C° 0 mm 1 m/s 640 mmHg 49%
    11:00 +24°C° 0 mm 1 m/s 640 mmHg 48%
    12:00 +25°C° 0 mm 1 m/s 640 mmHg 46%
    13:00 +24°C° 0,1 mm 1 m/s 640 mmHg 50%
    14:00 +23°C° 0,1 mm 1 m/s 639 mmHg 53%
    15:00 +23°C° 0,1 mm 1 m/s 639 mmHg 56%
    16:00 +22°C° 0,2 mm 1 m/s 638 mmHg 61%
    17:00 +21°C° 0,2 mm 1 m/s 638 mmHg 66%
    18:00 +19°C° 0,2 mm 2 m/s 638 mmHg 71%
    19:00 +18°C° 0,1 mm 2 m/s 637 mmHg 76%
    20:00 +17°C° 0,1 mm 2 m/s 637 mmHg 81%
    21:00 +15°C° 0,1 mm 2 m/s 637 mmHg 86%
    22:00 +15°C° 0 mm 2 m/s 637 mmHg 86%
    23:00 +15°C° 0 mm 2 m/s 637 mmHg 87%

    Demain, 22 Juin, Vendredi

    Heure Température Précipitation Vent Pression Humidité
    00:00 +14°C° 0 mm 2 m/s 637 mmHg 87%
    01:00 +14°C° 0 mm 2 m/s 636 mmHg 87%
    02:00 +13°C° 0 mm 2 m/s 636 mmHg 87%
    03:00 +13°C° 0 mm 2 m/s 636 mmHg 88%
    04:00 +14°C° 0 mm 2 m/s 636 mmHg 85%
    05:00 +14°C° 0 mm 2 m/s 637 mmHg 83%
    06:00 +15°C° 0 mm 2 m/s 637 mmHg 81%
    07:00 +17°C° 0 mm 2 m/s 638 mmHg 73%
    08:00 +19°C° 0 mm 2 m/s 638 mmHg 66%
    09:00 +20°C° 0 mm 2 m/s 639 mmHg 59%
    10:00 +21°C° 0 mm 2 m/s 639 mmHg 56%
    11:00 +23°C° 0 mm 2 m/s 639 mmHg 54%
    12:00 +24°C° 0 mm 2 m/s 639 mmHg 51%
    13:00 +23°C° 0,5 mm 2 m/s 639 mmHg 56%
    14:00 +21°C° 0,5 mm 2 m/s 638 mmHg 60%
    15:00 +20°C° 0,5 mm 2 m/s 638 mmHg 65%
    16:00 +19°C° 0,5 mm 2 m/s 638 mmHg 69%
    17:00 +18°C° 0,5 mm 2 m/s 637 mmHg 74%
    18:00 +17°C° 0,5 mm 2 m/s 637 mmHg 78%
    19:00 +16°C° 0,2 mm 2 m/s 637 mmHg 82%
    20:00 +15°C° 0,2 mm 2 m/s 637 mmHg 86%
    21:00 +14°C° 0,2 mm 2 m/s 637 mmHg 90%
    22:00 +14°C° 0 mm 1 m/s 637 mmHg 91%
    23:00 +13°C° 0 mm 1 m/s 637 mmHg 92%

    Après-demain, 23 Juin, Samedi

    Heure Température Précipitation Vent Pression Humidité
    00:00 +13°C° 0 mm 1 m/s 637 mmHg 93%
    01:00 +13°C° 0 mm 1 m/s 637 mmHg 93%
    02:00 +12°C° 0 mm 1 m/s 637 mmHg 93%
    03:00 +12°C° 0 mm 1 m/s 637 mmHg 93%
    04:00 +13°C° 0 mm 1 m/s 637 mmHg 90%
    05:00 +13°C° 0 mm 1 m/s 637 mmHg 87%
    06:00 +13°C° 0 mm 0 m/s 637 mmHg 85%
    07:00 +16°C° 0 mm 1 m/s 638 mmHg 77%
    08:00 +18°C° 0 mm 1 m/s 639 mmHg 70%
    09:00 +20°C° 0 mm 1 m/s 639 mmHg 63%
    10:00 +20°C° 0,1 mm 1 m/s 639 mmHg 62%
    11:00 +21°C° 0,1 mm 1 m/s 639 mmHg 61%
    12:00 +20°C° 0,1 mm 2 m/s 639 mmHg 59%
    13:00 +21°C° 0,2 mm 1 m/s 639 mmHg 59%
    14:00 +21°C° 0,2 mm 1 m/s 639 mmHg 59%
    15:00 +21°C° 0,2 mm 1 m/s 638 mmHg 59%
    16:00 +20°C° 0,2 mm 1 m/s 638 mmHg 62%
    17:00 +20°C° 0,2 mm 1 m/s 638 mmHg 65%
    18:00 +19°C° 0,2 mm 1 m/s 637 mmHg 68%
    19:00 +18°C° 0,1 mm 1 m/s 637 mmHg 73%
    20:00 +15°C° 0,1 mm 1 m/s 637 mmHg 78%
    21:00 +13°C° 0,1 mm 1 m/s 637 mmHg 84%
    22:00 +13°C° 0 mm 1 m/s 636 mmHg 85%
    23:00 +13°C° 0 mm 1 m/s 636 mmHg 86%

    24 Juin, Dimanche

    Heure Température Précipitation Vent Pression Humidité
    00:00 +13°C° 0 mm 1 m/s 636 mmHg 88%
    01:00 +12°C° 0 mm 1 m/s 636 mmHg 88%
    02:00 +12°C° 0 mm 1 m/s 635 mmHg 89%
    03:00 +12°C° 0 mm 1 m/s 635 mmHg 89%
    04:00 +13°C° 0 mm 1 m/s 635 mmHg 87%
    05:00 +14°C° 0 mm 1 m/s 636 mmHg 85%
    06:00 +15°C° 0 mm 1 m/s 636 mmHg 82%
    07:00 +18°C° 0 mm 1 m/s 637 mmHg 72%
    08:00 +20°C° 0 mm 1 m/s 637 mmHg 61%
    09:00 +22°C° 0 mm 1 m/s 638 mmHg 51%
    10:00 +23°C° 0 mm 1 m/s 638 mmHg 46%
    11:00 +24°C° 0 mm 2 m/s 638 mmHg 42%
    12:00 +25°C° 0 mm 2 m/s 638 mmHg 37%
    13:00 +25°C° 0 mm 2 m/s 638 mmHg 37%
    14:00 +25°C° 0 mm 2 m/s 638 mmHg 37%
    15:00 +25°C° 0 mm 2 m/s 637 mmHg 37%
    16:00 +23°C° 0 mm 2 m/s 637 mmHg 43%
    17:00 +22°C° 0 mm 1 m/s 636 mmHg 50%
    18:00 +21°C° 0 mm 1 m/s 636 mmHg 56%
    19:00 +19°C° 0 mm 1 m/s 636 mmHg 63%
    20:00 +16°C° 0 mm 1 m/s 635 mmHg 69%
    21:00 +14°C° 0 mm 1 m/s 635 mmHg 75%
    22:00 +13°C° 0 mm 1 m/s 635 mmHg 74%
    23:00 +13°C° 0 mm 1 m/s 634 mmHg 72%

    25 Juin, Lundi

    Heure Température Précipitation Vent Pression Humidité
    00:00 +12°C° 0 mm 1 m/s 634 mmHg 71%
    01:00 +12°C° 0 mm 1 m/s 634 mmHg 70%
    02:00 +12°C° 0 mm 1 m/s 634 mmHg 69%
    03:00 +12°C° 0 mm 1 m/s 634 mmHg 68%
    04:00 +12°C° 0 mm 1 m/s 634 mmHg 66%
    05:00 +13°C° 0 mm 1 m/s 634 mmHg 64%
    06:00 +14°C° 0 mm 1 m/s 635 mmHg 63%
    07:00 +16°C° 0 mm 1 m/s 636 mmHg 56%
    08:00 +19°C° 0 mm 1 m/s 637 mmHg 49%
    09:00 +21°C° 0 mm 1 m/s 637 mmHg 42%
    10:00 +22°C° 0 mm 1 m/s 637 mmHg 40%
    11:00 +23°C° 0 mm 1 m/s 638 mmHg 39%
    12:00 +24°C° 0 mm 2 m/s 638 mmHg 38%
    13:00 +24°C° 0 mm 2 m/s 638 mmHg 40%
    14:00 +24°C° 0 mm 2 m/s 637 mmHg 42%
    15:00 +23°C° 0 mm 2 m/s 637 mmHg 44%
    16:00 +22°C° 0,1 mm 1 m/s 637 mmHg 50%
    17:00 +21°C° 0,1 mm 1 m/s 636 mmHg 57%
    18:00 +20°C° 0,1 mm 1 m/s 636 mmHg 63%
    19:00 +18°C° 0 mm 1 m/s 636 mmHg 70%
    20:00 +15°C° 0 mm 1 m/s 635 mmHg 76%
    21:00 +14°C° 0 mm 1 m/s 635 mmHg 83%
    22:00 +13°C° 0 mm 1 m/s 635 mmHg 84%
    23:00 +13°C° 0 mm 1 m/s 635 mmHg 85%

    26 Juin, Mardi

    Heure Température Précipitation Vent Pression Humidité
    00:00 +13°C° 0 mm 1 m/s 635 mmHg 86%
    01:00 +13°C° 0 mm 1 m/s 635 mmHg 86%
    02:00 +12°C° 0 mm 1 m/s 634 mmHg 86%
    03:00 +12°C° 0 mm 1 m/s 634 mmHg 86%
    04:00 +13°C° 0 mm 1 m/s 634 mmHg 84%
    05:00 +14°C° 0 mm 1 m/s 635 mmHg 82%
    06:00 +15°C° 0 mm 1 m/s 635 mmHg 80%
    07:00 +16°C° 0 mm 1 m/s 636 mmHg 72%
    08:00 +19°C° 0 mm 1 m/s 636 mmHg 64%
    09:00 +21°C° 0 mm 1 m/s 637 mmHg 56%
    10:00 +21°C° 0,2 mm 1 m/s 637 mmHg 56%
    11:00 +20°C° 0,2 mm 2 m/s 637 mmHg 56%
    12:00 +21°C° 0,2 mm 2 m/s 637 mmHg 56%
    13:00 +20°C° 0,5 mm 2 m/s 637 mmHg 58%
    14:00 +20°C° 0,5 mm 2 m/s 637 mmHg 60%
    15:00 +20°C° 0,5 mm 2 m/s 636 mmHg 62%
    16:00 +19°C° 0,4 mm 2 m/s 636 mmHg 66%
    17:00 +19°C° 0,4 mm 2 m/s 636 mmHg 69%
    18:00 +19°C° 0,4 mm 1 m/s 636 mmHg 72%
    19:00 +18°C° 0,2 mm 1 m/s 636 mmHg 77%
    20:00 +16°C° 0,2 mm 1 m/s 636 mmHg 83%
    21:00 +14°C° 0,2 mm 1 m/s 636 mmHg 88%
    22:00 +14°C° 0,3 mm 1 m/s 636 mmHg 88%
    23:00 +14°C° 0,3 mm 1 m/s 636 mmHg 89%
    Voir plus